Location: Csohesd
(46.2500°N, 22.6167°E)
Time: 13:35:44
(UTC+00:00)

Cosmos 2251 Rocket - Pass Details

Date: 21 October 2021
Orbit: 765 x 791 km, 74.0° (Epoch: 06 December)

Event Time Altitude Azimuth Distance (km) Brightness Sun altitude
Rises 18:11:48 0° 334° (NNW) 3,252 7.3 -28.1°
Reaches altitude 10° 18:14:13 10° 330° (NNW) 2,318 6.5 -28.5°
Maximum altitude 18:19:19 53° 254° (WSW) 943 4.1 -29.4°
Enters shadow 18:19:59 49° 227° (SW) 982 4.1 -29.5°
